Glenwood, MN

9:48 AM CST on January 24, 2017 (GMT -0600)
Glenwood Municipal

Weather History for KGHW - April, 2013

Change the Weather History Date:

Wednesday, April 17, 2013

  Actual Average Record
Temperature  
Mean Temperature 32 °F -  
Max Temperature 35 °F 58 °F 86 °F (1987)
Min Temperature 28 °F 32 °F 14 °F (1953)
Degree Days  
Heating Degree Days 34    
Moisture  
Dew Point 28 °F    
Average Humidity 84    
Maximum Humidity 100    
Minimum Humidity 75    
Precipitation  
Precipitation 0.11 in - - ()
Sea Level Pressure  
Sea Level Pressure 30.18 in    
Wind  
Wind Speed 8 mph (NNE)    
Max Wind Speed 17 mph    
Max Gust Speed 18 mph    
Visibility 8 miles    
Events Snow    
Averages and records for this station are not official NWS values.
T = Trace of Precipitation, MM = Missing Value Source: NWS Daily Summary

Daily Weather History Graph

Daily Weather History Graph

Search for Another Location

Airport or City:

Trip Planner

Search our weather history database for the weather conditions in past years. The results will help you decide how hot, cold, wet, or windy it might be!

Date:

Astronomy

Apr. 17, 2013 Rise Set
Actual Time 6:31 AM CDT 8:10 PM CDT
Civil Twilight 6:00 AM CDT 8:42 PM CDT
Nautical Twilight 5:22 AM CDT 9:20 PM CDT
Astronomical Twilight 4:41 AM CDT 10:01 PM CDT
Moon 11:40 AM CDT (4/17) 1:55 AM CDT (4/17)
Length of Visible Light 14h 41m
Length of Day
13h 39m
Waxing Crescent, 42% of the Moon is Illuminated
Apr 17
Waxing Crescent
Apr 18
First Quarter
Apr 25
Full
May 2
Last Quarter
May 9
New

Hourly Weather History & Observations

Time (CDT) Temp. Windchill Dew Point Humidity Pressure Visibility Wind Dir Wind Speed Gust Speed Precip Events Conditions
12:13 AM 28.4 °F 23.3 °F 26.6 °F 93% 30.31 in 10.0 mi North 4.6 mph - N/A   Scattered Clouds
12:34 AM 28.4 °F 22.2 °F 26.6 °F 93% 30.31 in 10.0 mi North 5.8 mph - N/A   Clear
12:53 AM 28.4 °F 21.2 °F 24.8 °F 86% 30.32 in 10.0 mi North 6.9 mph - N/A   Scattered Clouds
1:13 AM 28.4 °F 21.2 °F 24.8 °F 86% 30.32 in 10.0 mi North 6.9 mph - N/A   Scattered Clouds
1:34 AM 30.2 °F 25.4 °F 26.6 °F 86% 30.32 in 10.0 mi North 4.6 mph - N/A   Mostly Cloudy
1:53 AM 30.2 °F 24.3 °F 26.6 °F 86% 30.33 in 10.0 mi NNW 5.8 mph - N/A   Overcast
2:13 AM 30.2 °F 22.6 °F 26.6 °F 86% 30.31 in 10.0 mi North 8.1 mph - N/A   Overcast
2:34 AM 30.2 °F 23.4 °F 26.6 °F 86% 30.32 in 10.0 mi North 6.9 mph - N/A   Overcast
2:53 AM 30.2 °F 23.4 °F 26.6 °F 86% 30.32 in 10.0 mi North 6.9 mph - N/A   Overcast
3:13 AM 30.2 °F 24.3 °F 26.6 °F 86% 30.32 in 10.0 mi North 5.8 mph - N/A   Overcast
3:33 AM 30.2 °F 24.3 °F 26.6 °F 86% 30.31 in 10.0 mi North 5.8 mph - N/A   Overcast
3:53 AM 30.2 °F 24.3 °F 26.6 °F 86% 30.31 in 10.0 mi North 5.8 mph - N/A   Overcast
4:33 AM 30.2 °F 23.4 °F 26.6 °F 86% 30.30 in 10.0 mi NNE 6.9 mph - N/A   Overcast
4:53 AM 30.2 °F 25.4 °F 26.6 °F 86% 30.30 in 10.0 mi North 4.6 mph - N/A   Overcast
5:14 AM 30.2 °F 23.4 °F 26.6 °F 86% 30.28 in 10.0 mi North 6.9 mph - N/A   Overcast
5:33 AM 30.2 °F 21.9 °F 26.6 °F 86% 30.26 in 10.0 mi NNE 9.2 mph - N/A   Overcast
5:53 AM 30.2 °F 22.6 °F 26.6 °F 86% 30.25 in 10.0 mi NNE 8.1 mph - N/A   Overcast
6:14 AM 30.2 °F 22.6 °F 26.6 °F 86% 30.24 in 10.0 mi NNE 8.1 mph - N/A   Overcast
6:33 AM 32.0 °F 24.2 °F 26.6 °F 80% 30.24 in 10.0 mi NNE 9.2 mph - N/A   Overcast
6:53 AM 32.0 °F 24.8 °F 26.6 °F 80% 30.25 in 10.0 mi NNE 8.1 mph - N/A   Overcast
7:14 AM 32.0 °F 24.2 °F 26.6 °F 80% 30.26 in 10.0 mi NNE 9.2 mph - N/A   Overcast
7:33 AM 32.0 °F 27.5 °F 26.6 °F 80% 30.30 in 10.0 mi ENE 4.6 mph - N/A   Overcast
7:53 AM 32.0 °F 27.5 °F 26.6 °F 80% 30.29 in 10.0 mi NNE 4.6 mph - N/A   Scattered Clouds
8:14 AM 33.8 °F 29.6 °F 28.4 °F 81% 30.29 in 10.0 mi NNE 4.6 mph - N/A   Clear
8:33 AM 33.8 °F 27.7 °F 26.6 °F 75% 30.27 in 10.0 mi NNE 6.9 mph - N/A   Scattered Clouds
8:53 AM 33.8 °F 27.7 °F 28.4 °F 81% 30.27 in 10.0 mi NE 6.9 mph - N/A   Mostly Cloudy
9:14 AM 33.8 °F 27.7 °F 26.6 °F 75% 30.27 in 10.0 mi NE 6.9 mph - N/A   Mostly Cloudy
9:33 AM 33.8 °F 27.7 °F 26.6 °F 75% 30.27 in 10.0 mi NE 6.9 mph - N/A   Scattered Clouds
9:53 AM 33.8 °F 27.0 °F 28.4 °F 81% 30.25 in 10.0 mi NE 8.1 mph - N/A   Mostly Cloudy
10:14 AM 33.8 °F 25.8 °F 28.4 °F 81% 30.23 in 10.0 mi ENE 10.4 mph - N/A   Mostly Cloudy
10:33 AM 33.8 °F 25.8 °F 28.4 °F 81% 30.23 in 10.0 mi ENE 10.4 mph - N/A   Mostly Cloudy
10:53 AM 33.8 °F 24.8 °F 28.4 °F 81% 30.22 in 10.0 mi ENE 12.7 mph - N/A   Mostly Cloudy
11:14 AM 33.8 °F 26.4 °F 28.4 °F 81% 30.22 in 10.0 mi ENE 9.2 mph - N/A   Overcast
11:33 AM 33.8 °F 26.4 °F 28.4 °F 81% 30.21 in 10.0 mi NE 9.2 mph - N/A   Overcast
11:53 AM 33.8 °F 26.4 °F 28.4 °F 81% 30.19 in 10.0 mi ENE 9.2 mph - N/A   Overcast
12:13 PM 33.8 °F 25.3 °F 28.4 °F 81% 30.19 in 10.0 mi ENE 11.5 mph - N/A   Overcast
12:33 PM 35.6 °F 27.5 °F 28.4 °F 75% 30.18 in 10.0 mi ENE 11.5 mph - N/A   Scattered Clouds
12:53 PM 35.6 °F 27.1 °F 28.4 °F 75% 30.17 in 10.0 mi ENE 12.7 mph - N/A   Scattered Clouds
1:13 PM 35.6 °F 26.6 °F 28.4 °F 75% 30.16 in 10.0 mi ENE 13.8 mph - N/A   Scattered Clouds
1:33 PM 35.6 °F 26.6 °F 28.4 °F 75% 30.15 in 10.0 mi ENE 13.8 mph - N/A   Mostly Cloudy
1:53 PM 35.6 °F 26.6 °F 28.4 °F 75% 30.14 in 10.0 mi ENE 13.8 mph - N/A   Overcast
2:13 PM 35.6 °F 26.6 °F 28.4 °F 75% 30.13 in 10.0 mi ENE 13.8 mph 18.4 mph N/A   Mostly Cloudy
2:33 PM 35.6 °F 26.6 °F 28.4 °F 75% 30.12 in 10.0 mi ENE 13.8 mph - N/A   Mostly Cloudy
2:53 PM 35.6 °F 26.6 °F 28.4 °F 75% 30.12 in 10.0 mi ENE 13.8 mph - N/A   Scattered Clouds
3:33 PM 35.6 °F 27.5 °F 28.4 °F 75% 30.11 in 10.0 mi ENE 11.5 mph - N/A   Overcast
4:13 PM 35.6 °F 28.6 °F 28.4 °F 75% 30.10 in 10.0 mi ENE 9.2 mph - N/A   Overcast
4:34 PM 35.6 °F 28.6 °F 28.4 °F 75% 30.10 in 10.0 mi NE 9.2 mph - N/A   Overcast
4:53 PM 35.6 °F 28.6 °F 30.2 °F 81% 30.08 in 10.0 mi NE 9.2 mph - N/A   Overcast
5:13 PM 35.6 °F 29.2 °F 30.2 °F 81% 30.08 in 10.0 mi NNE 8.1 mph - N/A   Overcast
5:34 PM 35.6 °F 28.6 °F 30.2 °F 81% 30.07 in 10.0 mi NNE 9.2 mph - N/A   Overcast
5:53 PM 35.6 °F 28.6 °F 30.2 °F 81% 30.06 in 10.0 mi NNE 9.2 mph - N/A Snow Light Snow
6:13 PM 35.6 °F 28.0 °F 30.2 °F 81% 30.07 in 10.0 mi NNE 10.4 mph - N/A Snow Light Snow
6:34 PM 35.6 °F 28.0 °F 30.2 °F 81% 30.06 in 10.0 mi NNE 10.4 mph - N/A Snow Snow
6:53 PM 33.8 °F 25.3 °F 30.2 °F 87% 30.07 in 5.0 mi NNE 11.5 mph - N/A   Light Drizzle
7:13 PM 33.8 °F 25.3 °F 30.2 °F 87% 30.07 in 2.5 mi NNE 11.5 mph - N/A   Overcast
7:34 PM 33.8 °F 25.3 °F 32.0 °F 93% 30.05 in 2.5 mi NNE 11.5 mph - N/A   Overcast
7:53 PM 33.8 °F 24.8 °F 32.0 °F 93% 30.05 in 1.8 mi North 12.7 mph - 0.01 in   Overcast
8:13 PM 33.8 °F 24.8 °F 32.0 °F 93% 30.05 in 3.0 mi NNE 12.7 mph - 0.01 in Snow Light Snow
8:33 PM 33.8 °F 25.3 °F 32.0 °F 93% 30.04 in 4.0 mi North 11.5 mph - 0.02 in   Overcast
8:53 PM 33.8 °F 24.3 °F 32.0 °F 93% 30.05 in 7.0 mi NNE 13.8 mph - 0.02 in   Overcast
9:13 PM 33.8 °F 24.8 °F 32.0 °F 93% 30.05 in 3.0 mi NNE 12.7 mph - 0.01 in   Overcast
9:34 PM 33.8 °F 24.8 °F 32.0 °F 93% 30.06 in 3.0 mi NNE 12.7 mph - 0.01 in Snow Light Snow
9:53 PM 32.0 °F 23.0 °F 32.0 °F 100% 30.05 in 3.0 mi NNE 11.5 mph - 0.02 in Snow Light Snow
10:13 PM 32.0 °F 20.8 °F 32.0 °F 100% 30.03 in 1.2 mi NNE 17.3 mph - 0.01 in Snow Light Snow
10:33 PM 32.0 °F 22.1 °F 30.2 °F 93% 30.03 in 1.8 mi NNE 13.8 mph - 0.02 in Snow Light Snow
10:53 PM 32.0 °F 23.0 °F 30.2 °F 93% 30.05 in 3.0 mi North 11.5 mph - 0.02 in Snow Light Snow
11:13 PM 32.0 °F 23.6 °F 30.2 °F 93% 30.03 in 3.0 mi North 10.4 mph - 0.02 in Snow Light Snow
11:33 PM 32.0 °F 23.0 °F 30.2 °F 93% 30.03 in 2.5 mi NNE 11.5 mph - 0.03 in Snow Light Snow
11:53 PM 32.0 °F 21.2 °F 30.2 °F 93% 30.02 in 1.8 mi NNE 16.1 mph - 0.04 in   Overcast